Location: Battlefield Observatory
(36.7579°N, 76.2613°W)
Time: 00:41:32
(UTC-05:00)

ISS - Visible Passes

Search period start: 22 November 2017 00:00
Search period end: 02 December 2017 00:00
Orbit: 402 x 407 km, 51.6° (Epoch: 22 November)

Date Brightness Start Highest point End Pass type
(mag) Time Alt. Az. Time Alt. Az. Time Alt. Az.
24 Nov -1.8 18:41:18 10° SSW 18:42:42 21° S 18:42:42 21° S visible
25 Nov -2.0 17:49:56 10° S 17:52:10 17° SE 17:52:58 16° ESE visible
25 Nov -0.4 19:25:18 10° WSW 19:25:39 12° WSW 19:25:39 12° WSW visible
26 Nov -3.7 18:32:46 10° SW 18:35:48 74° W 18:35:48 74° W visible
27 Nov -3.4 17:40:35 10° SSW 17:43:45 45° SE 17:45:52 18° ENE visible
27 Nov -0.6 19:17:53 10° WNW 19:18:32 13° WNW 19:18:32 13° WNW visible
28 Nov -2.5 18:24:52 10° W 18:27:51 32° NW 18:28:31 29° N visible
29 Nov -3.5 17:32:10 10° WSW 17:35:25 62° NW 17:38:24 12° NE visible
30 Nov -1.6 18:17:31 10° WNW 18:19:46 17° NNW 18:20:53 15° N visible
01 Dec -2.2 17:24:21 10° W 17:27:12 27° NNW 17:30:03 10° NNE visible
